FW6683 Weather Reports


time (UTC)temp
F
wind
direction
speed
knots
gust
knots
rain 1hr
in
rain 24hr
in
rain mn
in
humidity
%
barometer
mb
20260503022057 50 298 0.0 0.0 0.00 0.00 0.00 94 1009.9
20260503021555 50 299 0.0 0.0 0.00 0.00 0.00 94 1010.0
20260503021054 51 299 0.0 0.0 0.00 0.00 0.00 94 1009.9
20260503020553 51 298 0.0 0.0 0.00 0.00 0.00 94 1009.9
20260503020053 51 298 0.0 0.0 0.00 0.00 0.00 94 1010.1
20260503015552 51 298 0.0 0.0 0.00 0.00 0.00 93 1010.0
20260503015056 51 298 0.0 0.0 0.00 0.00 0.00 93 1010.0
20260503014612 51 298 0.0 0.0 0.00 0.00 0.00 93 1010.0
20260503014052 51 299 0.0 0.0 0.00 0.00 0.00 93 1009.9
20260503013552 51 298 0.0 0.0 0.00 0.00 0.00 93 1009.9
20260503013052 51 298 0.0 0.0 0.00 0.00 0.00 93 1010.0
20260503012551 51 298 0.0 0.0 0.00 0.00 0.00 93 1010.0
20260503012049 51 299 0.0 0.0 0.00 0.00 0.00 93 1010.1
20260503011608 51 298 0.0 0.9 0.00 0.00 0.00 93 1010.1
20260503011052 51 298 0.0 0.9 0.00 0.00 0.00 93 1010.2
20260503010549 51 298 0.0 0.9 0.00 0.00 0.00 93 1010.2
20260503010049 51 298 0.0 0.0 0.00 0.00 0.00 93 1010.2
20260503005550 51 298 0.0 0.0 0.00 0.00 0.00 93 1010.2
20260503005048 51 298 0.0 0.0 0.00 0.00 0.00 93 1010.3
20260503004548 51 298 0.0 0.0 0.00 0.00 0.00 93 1010.3
20260503004046 51 298 0.0 0.0 0.00 0.00 0.00 93 1010.3
20260503003544 51 298 0.0 0.0 0.00 0.00 0.00 93 1010.3
20260503003044 50 298 0.0 0.0 0.00 0.00 0.00 93 1010.4
20260503002541 50 298 0.0 0.0 0.00 0.00 0.00 93 1010.4
20260503002040 50 298 0.0 0.0 0.00 0.00 0.00 93 1010.5
20260503001540 50 298 0.0 0.0 0.00 0.00 0.00 93 1010.5
20260503001039 50 298 0.0 0.0 0.00 0.00 0.00 92 1010.4
20260503000540 50 298 0.0 0.0 0.00 0.00 0.00 92 1010.4
20260503000040 50 298 0.0 0.0 0.00 0.00 0.00 92 1010.4
20260502235538 50 298 0.0 0.0 0.00 0.00 0.00 92 1010.5
20260502235038 50 298 0.0 0.0 0.00 0.00 0.00 92 1010.5
20260502234558 50 298 0.0 0.0 0.00 0.00 0.00 92 1010.5
20260502234038 50 298 0.0 0.0 0.00 0.00 0.00 92 1010.5
20260502233537 50 298 0.0 0.0 0.00 0.00 0.00 92 1010.5
20260502233037 50 298 0.0 0.0 0.00 0.00 0.00 92 1010.6
20260502232536 50 298 0.0 0.0 0.00 0.00 0.00 92 1010.6
20260502232037 50 298 0.0 0.0 0.00 0.00 0.00 91 1010.6
20260502231535 50 298 0.0 0.0 0.00 0.00 0.00 91 1010.7
20260502231035 51 298 0.0 0.0 0.00 0.00 0.00 91 1010.7
20260502230533 51 298 0.0 0.0 0.00 0.00 0.00 91 1010.7
20260502230033 51 298 0.0 0.0 0.00 0.00 0.00 91 1010.7
20260502225532 51 298 0.0 0.0 0.00 0.00 0.00 91 1010.6
20260502225031 51 298 0.0 0.0 0.00 0.00 0.00 91 1010.6
20260502224531 51 298 0.0 0.0 0.00 0.00 0.00 91 1010.6
20260502224032 51 298 0.0 0.0 0.00 0.00 0.00 90 1010.6
20260502223531 52 298 0.0 0.0 0.00 0.00 0.00 90 1010.7
20260502223031 52 298 0.0 0.0 0.00 0.00 0.00 90 1010.7
20260502222530 52 298 0.0 0.0 0.00 0.00 0.00 90 1010.7
20260502222029 52 298 0.0 0.0 0.00 0.00 0.00 90 1010.6
20260502221529 52 298 0.0 0.0 0.00 0.00 0.00 89 1010.7
20260502221029 52 298 0.0 0.0 0.00 0.00 0.00 89 1010.6
20260502220529 52 298 0.0 0.0 0.00 0.00 0.00 89 1010.6
20260502220029 52 298 0.0 0.0 0.00 0.00 0.00 89 1010.7
20260502215529 52 298 0.0 0.0 0.00 0.00 0.00 88 1010.6
20260502215028 52 298 0.0 0.0 0.00 0.00 0.00 88 1010.4
20260502214528 52 298 0.0 0.0 0.00 0.00 0.00 88 1010.5
20260502214032 52 298 0.0 0.0 0.00 0.00 0.00 88 1010.5
20260502213529 52 298 0.0 0.0 0.00 0.00 0.00 87 1010.5
20260502213038 52 298 0.0 0.0 0.00 0.00 0.00 87 1010.5
20260502212528 52 298 0.0 0.0 0.00 0.00 0.00 87 1010.5
20260502212027 52 298 0.0 0.0 0.00 0.00 0.00 86 1010.5
20260502211528 52 298 0.0 0.0 0.00 0.00 0.00 86 1010.6
20260502211028 52 298 0.0 0.9 0.00 0.00 0.00 86 1010.6
20260502210526 52 298 0.0 0.9 0.00 0.00 0.00 86 1010.6
20260502210027 53 298 0.0 1.7 0.00 0.00 0.00 86 1010.6
20260502205527 53 298 0.0 1.7 0.00 0.00 0.00 85 1010.5
20260502205028 53 10 0.0 0.9 0.00 0.00 0.00 84 1010.5
20260502204527 53 60 0.0 0.0 0.00 0.00 0.00 84 1010.5
20260502204028 53 60 0.0 0.9 0.00 0.00 0.00 84 1010.6
20260502203532 53 60 0.0 0.9 0.00 0.00 0.00 84 1010.5
20260502203028 53 60 0.0 1.7 0.00 0.00 0.00 84 1010.5
20260502202525 53 60 0.0 1.7 0.00 0.00 0.00 84 1010.5
20260502202025 53 85 0.9 1.7 0.00 0.00 0.00 84 1010.5
20260502201535 53 125 0.0 1.7 0.00 0.00 0.00 84 1010.5
20260502201029 53 127 0.0 2.6 0.00 0.00 0.00 84 1010.5
20260502200525 53 165 0.0 1.7 0.00 0.00 0.00 84 1010.5
20260502200025 53 254 0.0 1.7 0.00 0.00 0.00 84 1010.5
20260502195524 53 250 0.0 1.7 0.00 0.00 0.00 84 1010.5
20260502195024 53 224 0.0 0.9 0.00 0.00 0.00 83 1010.6
20260502194525 54 224 0.0 2.6 0.00 0.00 0.00 83 1010.4
20260502194025 54 224 0.0 2.6 0.00 0.00 0.00 82 1010.4
20260502193529 54 124 0.0 2.6 0.00 0.00 0.00 82 1010.4
20260502193027 54 125 0.0 2.6 0.00 0.00 0.00 82 1010.4
20260502192523 54 127 0.0 2.6 0.00 0.00 0.00 81 1010.4
20260502192023 54 131 0.0 1.7 0.00 0.00 0.00 81 1010.5
20260502191528 55 131 0.0 4.3 0.00 0.00 0.00 81 1010.5
20260502191025 55 131 0.0 4.3 0.00 0.00 0.00 81 1010.5
20260502190525 55 143 0.0 1.7 0.00 0.00 0.00 81 1010.4
20260502190023 55 143 0.0 1.7 0.00 0.00 0.00 81 1010.4
20260502185522 56 143 0.0 1.7 0.00 0.00 0.00 80 1010.5
20260502185023 56 127 0.0 0.9 0.00 0.00 0.00 80 1010.4
20260502184525 56 127 0.0 0.9 0.00 0.00 0.00 80 1010.4
20260502184023 56 127 0.0 3.5 0.00 0.00 0.00 79 1010.5
20260502183522 56 127 0.0 3.5 0.00 0.00 0.00 79 1010.5
20260502183028 57 116 0.0 2.6 0.00 0.00 0.00 79 1010.4
20260502182522 57 116 0.0 2.6 0.00 0.00 0.00 78 1010.4
20260502182021 57 118 0.0 0.0 0.00 0.00 0.00 78 1010.4
20260502181523 57 118 0.0 0.0 0.00 0.00 0.00 78 1010.4
20260502181021 58 118 0.0 0.0 0.00 0.00 0.00 78 1010.4
20260502180521 57 118 0.0 0.0 0.00 0.00 0.00 77 1010.4
20260502164017 59 331 0.0 2.6 0.00 0.00 0.00 76 1010.5
20260502163517 59 330 0.0 2.6 0.00 0.00 0.00 75 1010.5
20260502163019 59 117 0.0 2.6 0.00 0.00 0.00 76 1010.5
20260502162516 58 292 0.0 1.7 0.00 0.00 0.00 76 1010.5
20260502162016 58 288 0.0 2.6 0.00 0.00 0.00 76 1010.6
20260502161515 58 287 0.0 2.6 0.00 0.00 0.00 76 1010.7
20260502161014 58 148 0.0 1.7 0.00 0.00 0.00 76 1010.7
20260502160514 58 148 0.0 1.7 0.00 0.00 0.00 76 1010.8
20260502152014 58 268 0.0 2.6 0.00 0.00 0.00 74 1011.0
20260502151510 58 104 0.0 2.6 0.00 0.00 0.00 76 1011.1
20260502151012 58 103 0.0 5.2 0.00 0.00 0.00 76 1011.2
20260502150511 58 127 0.9 3.5 0.00 0.00 0.00 76 1011.1
20260502130500 59 127 0.9 6.1 0.00 0.00 0.00 73 1012.3
20260502123558 60 291 0.0 2.6 0.00 0.00 0.00 71 1012.5
20260502123056 60 288 0.0 2.6 0.00 0.00 0.00 71 1012.5
20260502122556 60 131 0.0 1.7 0.00 0.00 0.00 72 1012.6
20260502122053 59 261 0.0 1.7 0.00 0.00 0.00 72 1012.7
20260502121552 59 271 0.0 3.5 0.00 0.00 0.00 71 1012.7
20260502121051 59 315 0.0 3.5 0.00 0.00 0.00 72 1012.8
20260502120551 60 238 0.0 2.6 0.00 0.00 0.00 71 1012.8
20260502115549 59 112 0.0 5.2 0.00 0.00 0.00 71 1012.9
20260502115049 60 113 0.0 3.5 0.00 0.00 0.00 72 1012.9
20260502114547 60 124 0.9 3.5 0.00 0.00 0.00 71 1012.9
20260502114046 60 281 0.9 2.6 0.00 0.00 0.00 71 1012.8
20260502113545 59 321 0.0 3.5 0.00 0.00 0.00 72 1012.8
20260502113045 59 307 0.0 4.3 0.00 0.00 0.00 74 1012.8
20260502112542 59 319 1.7 4.3 0.00 0.00 0.00 74 1012.7
20260502112042 58 281 0.0 1.7 0.00 0.00 0.00 75 1012.8
20260502111541 58 283 0.0 2.6 0.00 0.00 0.00 76 1012.8
20260502111041 57 278 0.0 5.2 0.00 0.00 0.00 76 1012.9
20260502110541 57 296 2.6 6.1 0.00 0.00 0.00 74 1012.8
20260502110044 58 247 0.9 6.1 0.00 0.00 0.00 76 1013.0
20260502105540 58 290 1.7 5.2 0.00 0.00 0.00 75 1012.9
20260502105041 58 311 1.7 5.2 0.00 0.00 0.00 75 1012.9
20260502104542 58 271 0.9 4.3 0.00 0.00 0.00 75 1013.0
20260502104040 58 294 1.7 5.2 0.00 0.00 0.00 76 1012.9
20260502103541 58 256 0.9 5.2 0.00 0.00 0.00 75 1013.0
20260502103039 58 279 1.7 4.3 0.00 0.00 0.00 75 1013.0
20260502102539 58 294 1.7 4.3 0.00 0.00 0.00 74 1013.0
20260502102038 58 286 2.6 4.3 0.00 0.00 0.00 74 1013.0
20260502101543 59 286 1.7 3.5 0.00 0.00 0.00 73 1013.1
20260502101036 59 359 0.0 2.6 0.00 0.00 0.00 74 1013.2
20260502100535 58 358 0.9 3.5 0.00 0.00 0.00 75 1013.2
20260502091032 58 94 0.9 2.6 0.00 0.00 0.00 72 1013.4
20260502090530 58 94 0.0 1.7 0.00 0.00 0.00 73 1013.5
20260502071516 55 75 1.7 5.2 0.00 0.00 0.00 78 1013.9
20260502071016 55 81 2.6 5.2 0.00 0.00 0.00 78 1013.8
20260502070518 55 118 0.9 4.3 0.00 0.00 0.00 80 1013.9
20260502070021 54 105 0.9 3.5 0.00 0.00 0.00 81 1014.0
20260502065512 54 105 0.9 3.5 0.00 0.00 0.00 80 1014.0
20260502065044 54 96 0.9 3.5 0.00 0.00 0.00 81 1014.1
20260502064504 54 121 0.9 2.6 0.00 0.00 0.00 81 1014.1
20260502064002 54 122 0.9 3.5 0.00 0.00 0.00 81 1014.1
20260502063501 54 92 0.0 2.6 0.00 0.00 0.00 82 1014.1
20260502063001 53 92 1.7 3.5 0.00 0.00 0.00 81 1014.0
20260502062601 53 83 0.0 3.5 0.00 0.00 0.00 82 1014.1
20260502062059 53 88 0.9 2.6 0.00 0.00 0.00 84 1014.1
20260502061558 52 103 0.0 1.7 0.00 0.00 0.00 84 1014.2
20260502061056 51 103 0.9 1.7 0.00 0.00 0.00 85 1014.0
20260502060555 51 103 0.0 0.0 0.00 0.00 0.00 87 1014.1
20260502060057 50 103 0.0 1.7 0.00 0.00 0.00 88 1014.1
20260502055553 49 103 0.0 2.6 0.00 0.00 0.00 88 1014.1
20260502055055 49 103 0.9 2.6 0.00 0.00 0.00 88 1014.1
20260502054602 49 103 0.9 2.6 0.00 0.00 0.00 88 1014.0
20260502054051 48 103 0.0 0.0 0.00 0.00 0.00 88 1014.1
20260502053547 48 103 0.0 0.0 0.00 0.00 0.00 88 1014.0
20260502053047 48 103 0.0 0.0 0.00 0.00 0.00 88 1014.0
20260502052546 48 103 0.0 0.0 0.00 0.00 0.00 88 1013.9
20260502052046 48 103 0.0 0.0 0.00 0.00 0.00 88 1014.0
20260502051548 48 103 0.0 0.0 0.00 0.00 0.00 87 1014.0
20260502051043 48 103 0.0 0.0 0.00 0.00 0.00 87 1014.0
20260502050543 49 103 0.0 0.0 0.00 0.00 0.00 87 1014.1
20260502050049 49 103 0.0 0.0 0.00 0.00 0.00 87 1014.1
20260502045541 49 94 0.0 0.0 0.00 0.00 0.00 87 1014.2
20260502045041 49 94 0.0 0.0 0.00 0.00 0.00 86 1014.2
20260502044540 49 94 0.0 0.0 0.00 0.00 0.00 86 1014.2
20260502044038 49 94 0.0 0.0 0.00 0.00 0.00 85 1014.1
20260502043537 49 94 0.0 0.0 0.00 0.00 0.00 85 1014.2
20260502043050 50 94 0.0 0.0 0.00 0.00 0.00 85 1014.3
20260502042535 50 94 0.0 0.0 0.00 0.00 0.00 84 1014.3
20260502042034 50 94 0.0 0.0 0.00 0.00 0.00 84 1014.2
20260502041553 51 94 0.0 0.0 0.00 0.00 0.00 84 1014.3
20260502041033 51 94 0.0 0.0 0.00 0.00 0.00 83 1014.4
20260502040531 51 94 0.0 0.0 0.00 0.00 0.00 83 1014.4
20260502040046 51 94 0.0 0.0 0.00 0.00 0.00 83 1014.6
20260502035529 51 94 0.0 0.0 0.00 0.00 0.00 82 1014.4
20260502035028 52 94 0.0 0.0 0.00 0.00 0.00 82 1014.5
20260502034528 52 94 0.0 0.0 0.00 0.00 0.00 82 1014.5
20260502034029 52 94 0.0 0.0 0.00 0.00 0.00 82 1014.6
20260502033529 52 94 0.0 0.0 0.00 0.00 0.00 82 1014.5
20260502033030 52 94 0.0 0.0 0.00 0.00 0.00 82 1014.5
20260502032525 52 94 0.0 0.0 0.00 0.00 0.00 83 1014.6
20260502032023 52 94 0.0 0.0 0.00 0.00 0.00 83 1014.6
20260502031522 52 94 0.0 1.7 0.00 0.00 0.00 83 1014.8
20260502031021 52 94 0.0 1.7 0.00 0.00 0.00 83 1014.8
20260502030520 52 319 0.0 0.9 0.00 0.00 0.00 83 1015.0
20260502030020 52 298 0.0 1.7 0.00 0.00 0.00 83 1015.0
20260502025520 52 298 0.0 1.7 0.00 0.00 0.00 83 1014.9
20260502025021 52 279 0.0 0.9 0.00 0.00 0.00 83 1014.9
20260502024519 52 279 0.0 1.7 0.00 0.00 0.00 82 1015.0
20260502024017 52 279 0.0 1.7 0.00 0.00 0.00 82 1015.0
20260502023520 52 309 0.0 1.7 0.00 0.00 0.00 82 1015.0
20260502023027 52 309 0.0 1.7 0.00 0.00 0.00 82 1014.9
20260502022517 52 309 0.0 2.6 0.00 0.00 0.00 81 1015.0